Regional Weather Roundup
Issued by NWS Northern Indiana

Home | Current Version | Previous Version | Text Only | Print | Product List | Glossary Off
Versions: 1 2 3 4 5 6 7 8 9 10 11 12 13 14 15 16 17 18 19 20 21 22 23 24 25 26 27 28 29 30 31 32 33 34 35 36 37 38 39 40 41 42 43 44 45 46 47 48 49 50

000
ASUS43 KIWX 281210
RWRIWX

KIWX WEATHER ROUNDUP
NATIONAL WEATHER SERVICE NORTHERN INDIANA
800 AM EDT TUE APR 28 2015

NOTE: "FAIR" INDICATES FEW OR NO CLOUDS BELOW 12,000 FEET WITH NO
SIGNIFICANT WEATHER AND/OR OBSTRUCTIONS TO VISIBILITY.

* THESE STATIONS ARE NOT UNDER NWS QUALITY CONTROL. THEY ALSO MAY NOT
  REPORT WEATHER SUCH AS PRECIPITATION OR FOG.

INZ001>027-281300-
NORTHERN INDIANA

CITY           SKY/WX    TMP DP  RH WIND       PRES   REMARKS
VALPARAISO     PTSUNNY   38  35  89 CALM      30.17R
6HR MIN TEMP:  32; 6HR MAX TEMP:  38;

MICHIGAN CITY* PTSUNNY   34  34 100 CALM      30.17S FOG
LAPORTE*       SUNNY     39  39 100 CALM      30.17R
6HR MIN TEMP:  34; 6HR MAX TEMP:  39;

KNOX*          SUNNY     32  30  93 CALM      30.16R
SOUTH BEND     SUNNY     37  34  89 CALM      30.17R
6HR MIN TEMP:  33; 6HR MAX TEMP:  37;

ELKHART*       SUNNY     36  32  87 CALM      30.14F
GOSHEN         SUNNY     35  34  96 CALM      30.16R
6HR MIN TEMP:  31; 6HR MAX TEMP:  36;

MONTICELLO*    SUNNY     35  34  96 CALM      30.16S
6HR MIN TEMP:  32; 6HR MAX TEMP:  40;

LOGANSPORT*    SUNNY     37  36  93 N3        30.17R
ROCHESTER*     SUNNY     39  39 100 CALM      30.17R
WARSAW*        SUNNY     34  34 100 CALM      30.16R
ANGOLA*        SUNNY     34  34 100 CALM      30.15R
FORT WAYNE     MOSUNNY   38  35  89 CALM      30.17R
6HR MIN TEMP:  32; 6HR MAX TEMP:  38;

HUNTINGTON*    SUNNY     37  35  95 CALM      30.16R
6HR MIN TEMP:  31; 6HR MAX TEMP:  37;

PERU/GRISSOM   SUNNY     37  35  91 NW1       30.15R
6HR MIN TEMP:  33; 6HR MAX TEMP:  39;

MARION*        SUNNY     35  35  96 CALM      30.16R
6HR MIN TEMP:  29; 6HR MAX TEMP:  59;


$$
INZ028>050-281300-
CENTRAL INDIANA

CITY           SKY/WX    TMP DP  RH WIND       PRES   REMARKS
LAFAYETTE      SUNNY     36  34  92 NW3       30.16R
6HR MIN TEMP:  32; 6HR MAX TEMP:  40;

KOKOMO*        SUNNY     37  34  87 CALM      30.16R
6HR MIN TEMP:  34; 6HR MAX TEMP:  39;

MUNCIE*        SUNNY     39  37  92 CALM      30.15R
6HR MIN TEMP:  34; 6HR MAX TEMP:  39;

INDIANAPOLIS   SUNNY     43  36  76 NE6       30.14R
6HR MIN TEMP:  39; 6HR MAX TEMP:  45;


$$
MIZ043>046-050>051-056>058-064>065-071>073-077>080-281300-
SOUTHWEST LOWER MICHIGAN

CITY           SKY/WX    TMP DP  RH WIND       PRES   REMARKS
BATTLE CREEK   SUNNY     38  34  85 CALM      30.16R
6HR MIN TEMP:  33; 6HR MAX TEMP:  41;

BENTON HARBOR  SUNNY     33  32  96 CALM      30.15R
6HR MIN TEMP:  29; 6HR MAX TEMP:  33;

COLDWATER*     SUNNY     33  33  97 S5        30.15R WCI  29
6HR MIN TEMP:  30; 6HR MAX TEMP:  35;

HILLSDALE*     SUNNY     39  39  99 CALM      30.14R
6HR MIN TEMP:  31; 6HR MAX TEMP:  39;

HOLLAND        SUNNY     37  34  89 SE6       30.15R
6HR MIN TEMP:  33; 6HR MAX TEMP:  39;

GRAND RAPIDS   MOSUNNY   39  34  82 E5        30.15R
6HR MIN TEMP:  36; 6HR MAX TEMP:  40;

KALAMAZOO      MOSUNNY   37  34  89 CALM      30.16R
6HR MIN TEMP:  33; 6HR MAX TEMP:  38;

STURGIS*       SUNNY     37  36  93 CALM      30.15R
THREE RIVERS*  FAIR      35  34  94 CALM      30.16R

$$
OHZ001>008-015>018-024>025-281300-
NORTHWEST OHIO

CITY           SKY/WX    TMP DP  RH WIND       PRES   REMARKS
WAUSEON*       FAIR      37  36  93 CALM      30.15R
DEFIANCE       SUNNY     36  33  89 CALM      30.16R
6HR MIN TEMP:  32; 6HR MAX TEMP:  36;

FINDLAY        SUNNY     38  34  85 CALM      30.14R
6HR MIN TEMP:  32; 6HR MAX TEMP:  38;

TOLEDO EXPRESS SUNNY     36  32  85 W3        30.15R
6HR MIN TEMP:  32; 6HR MAX TEMP:  36;

TOLEDO METCALF SUNNY     39  35  86 NW3       30.15R
6HR MIN TEMP:  32; 6HR MAX TEMP:  39;

LIMA           SUNNY     36  34  92 CALM      30.14R
6HR MIN TEMP:  32; 6HR MAX TEMP:  38;


$$
AND FOR LAKE MICHIGAN COASTAL AND OPEN LAKE BUOY OBSERVATIONS

STATION/POSITION TEMP    WIND        PRES    VSBY  WAVE
                 AIR SEA DIR/SP/G                  HT/PER
                 (F)     (DEG/KT/KT) (MB)    (MI)  (FT/S)
CALUMET HARBOR            CALM  /  1   N/A
MICHIGAN CITY     39     140/  3/  4   N/A
BURNS HARBOR      42     310/  4/  5 1022.0S
SAINT JOSEPH      42     200/  7/  8 1021.7R
MICHIGAN CITY     41 46  270/  6/  6   N/A           1/ 4

$$
&&


USA.gov is the U.S. government's official web portal to all federal, state and local government web resources and services.